Total_Precipitation_Accumulation
1.37 1.53 1.82 2.25 2.71 3.22 3.34 3.38 3.53 3.78 3.99 4.17 4.24 4.12 3.75 3.55 3.41 3.17 2.99 2.92 2.81 2.85 2.98 2.71 2.40 2.30 2.24 2.21 2.17 2.11 1.98 1.76 1.71 1.69 1.41 1.10 0.94 0.87 0.78 0.74 0.72 0.66 0.62
1.35 1.50 1.72 2.02 2.29 2.78 3.14 3.19 3.30 3.43 3.56 3.67 3.95 4.13 4.01 3.71 3.60 3.52 3.27 3.04 2.94 2.91 2.97 3.04 2.84 2.52 2.40 2.40 2.41 2.33 2.17 2.06 2.01 1.93 1.83 1.61 1.39 1.07 0.88 0.82 0.77 0.73 0.72
1.30 1.45 1.60 1.92 2.11 2.48 2.92 3.08 3.20 3.36 3.37 3.58 4.10 4.43 4.52 4.19 3.87 3.67 3.56 3.34 3.10 3.02 2.97 2.96 2.99 2.85 2.64 2.53 2.54 2.60 2.59 2.42 2.30 2.17 2.21 1.94 1.60 1.29 1.06 0.96 0.90 0.88 0.85
1.20 1.32 1.41 1.74 1.99 2.20 2.55 2.80 3.09 3.37 3.51 3.64 3.89 4.03 3.97 3.83 3.50 3.40 3.40 3.45 3.39 3.14 3.04 3.04 3.03 2.99 2.87 2.67 2.63 2.71 2.77 2.80 2.70 2.52 2.31 2.04 1.69 1.56 1.32 1.08 1.05 1.10 1.08
1.15 1.34 1.43 1.56 1.72 2.03 2.32 2.52 2.71 3.00 3.31 3.49 3.66 3.86 3.80 3.63 3.57 3.55 3.51 3.45 3.47 3.35 3.19 3.09 3.08 3.05 3.00 2.90 2.83 2.80 2.83 2.85 2.83 2.75 2.55 2.34 1.98 1.69 1.57 1.35 1.20 1.25 1.21
1.15 1.28 1.35 1.47 1.56 1.79 2.13 2.32 2.49 2.68 2.98 3.21 3.41 3.65 3.61 3.44 3.29 3.34 3.41 3.33 3.30 3.23 3.15 3.12 3.05 2.97 2.90 2.81 2.78 2.80 2.79 2.80 2.75 2.65 2.53 2.43 2.23 1.94 1.82 1.64 1.40 1.40 1.38
1.06 1.18 1.28 1.46 1.55 1.70 1.86 1.99 2.08 2.24 2.51 2.80 2.97 3.19 3.32 3.33 3.17 2.99 3.10 3.14 3.06 2.95 2.88 2.93 2.97 2.93 2.83 2.78 2.73 2.69 2.62 2.66 2.71 2.61 2.46 2.31 2.07 1.89 1.92 1.91 1.71 1.53 1.40
1.03 1.07 1.15 1.33 1.49 1.64 1.66 1.69 1.77 1.91 2.05 2.21 2.40 2.58 2.69 2.91 2.98 2.88 2.76 2.82 2.81 2.75 2.74 2.77 2.84 2.90 2.89 2.80 2.78 2.70 2.56 2.51 2.50 2.49 2.43 2.36 2.16 1.97 1.91 1.92 1.99 1.94 1.67
0.93 1.01 1.13 1.24 1.35 1.47 1.54 1.56 1.63 1.71 1.76 1.90 2.04 2.26 2.30 2.35 2.49 2.57 2.59 2.59 2.53 2.53 2.61 2.74 2.73 2.71 2.75 2.69 2.65 2.62 2.47 2.35 2.30 2.25 2.28 2.27 2.17 2.09 1.98 1.95 2.07 2.33 2.29
0.92 1.04 1.17 1.27 1.33 1.43 1.50 1.47 1.52 1.58 1.64 1.70 1.84 1.99 2.09 2.16 2.22 2.26 2.28 2.34 2.33 2.27 2.32 2.44 2.54 2.55 2.54 2.58 2.60 2.48 2.32 2.24 2.11 2.01 2.05 2.09 2.08 2.12 2.13 2.10 2.12 2.25 2.44
0.93 1.07 1.19 1.32 1.36 1.38 1.44 1.46 1.42 1.45 1.52 1.57 1.62 1.72 1.80 1.89 2.02 2.04 2.02 2.04 2.09 2.07 2.04 2.14 2.22 2.23 2.22 2.25 2.32 2.30 2.23 2.20 2.13 2.02 1.92 1.85 1.89 2.03 2.10 2.19 2.22 2.25 2.34
0.90 1.02 1.10 1.14 1.21 1.30 1.41 1.48 1.41 1.41 1.39 1.48 1.57 1.59 1.64 1.69 1.80 1.84 1.86 1.84 1.87 1.92 1.91 1.95 2.05 2.07 2.04 2.03 2.05 2.03 2.02 2.04 2.03 2.01 1.98 1.90 1.89 2.03 2.10 2.21 2.24 2.19 2.12
0.86 0.91 1.01 1.02 1.05 1.15 1.31 1.46 1.43 1.42 1.36 1.34 1.47 1.58 1.57 1.53 1.61 1.67 1.64 1.66 1.69 1.79 1.84 1.82 1.87 1.90 1.94 1.98 1.98 1.95 1.95 1.90 1.89 1.95 2.01 1.95 1.98 2.04 2.05 2.06 2.04 1.98 1.88
0.86 0.89 0.94 0.94 0.96 1.03 1.10 1.25 1.29 1.30 1.34 1.37 1.38 1.45 1.49 1.47 1.45 1.52 1.51 1.51 1.55 1.63 1.71 1.72 1.70 1.75 1.81 1.87 1.91 1.97 2.03 2.02 1.97 1.96 1.98 1.97 1.98 1.94 1.94 1.95 1.90 1.87 1.86
0.77 0.83 0.89 0.89 0.88 0.94 0.96 1.05 1.16 1.23 1.30 1.37 1.39 1.37 1.42 1.44 1.45 1.46 1.48 1.47 1.52 1.54 1.58 1.64 1.64 1.66 1.77 1.88 1.91 1.92 1.99 2.09 2.09 2.03 1.96 1.90 1.99 1.97 1.91 1.90 1.88 1.93 2.04
0.76 0.79 0.83 0.83 0.83 0.90 0.96 0.99 1.05 1.20 1.23 1.30 1.37 1.34 1.29 1.33 1.44 1.54 1.55 1.55 1.54 1.56 1.59 1.66 1.71 1.74 1.79 2.12 2.19 2.08 2.03 2.05 2.03 1.96 1.85 1.80 1.89 1.85 1.89 1.93 1.94 2.03 2.17
0.70 0.73 0.78 0.82 0.87 0.91 0.94 0.97 1.01 1.14 1.21 1.26 1.32 1.33 1.33 1.36 1.40 1.51 1.63 1.69 1.67 1.67 1.73 1.80 1.84 1.89 1.98 2.14 2.03 2.04 1.90 1.86 1.83 1.74 1.65 1.59 1.54 1.61 1.46 1.60 1.77 1.81 1.94
0.64 0.67 0.71 0.76 0.79 0.82 0.88 0.94 0.96 1.02 1.09 1.16 1.26 1.29 1.31 1.43 1.51 1.56 1.62 1.70 1.74 1.79 1.88 1.96 1.96 1.92 1.96 1.97 1.78 1.78 1.65 1.56 1.49 1.44 1.42 1.40 1.35 1.36 1.43 1.48 1.58 1.50 1.44
0.66 0.69 0.71 0.76 0.75 0.76 0.83 0.91 0.97 1.02 1.05 1.11 1.23 1.31 1.32 1.39 1.49 1.63 1.67 1.70 1.76 1.81 1.82 1.82 1.77 1.67 1.62 1.67 1.53 1.47 1.36 1.38 1.32 1.22 1.21 1.24 1.21 1.40 1.63 1.66 1.63 1.44 1.31
0.57 0.65 0.68 0.71 0.72 0.75 0.82 0.92 1.00 1.09 1.19 1.25 1.32 1.41 1.46 1.49 1.49 1.54 1.61 1.61 1.56 1.53 1.44 1.36 1.31 1.24 1.17 1.27 1.33 1.36 1.24 1.21 1.17 1.14 1.13 1.28 1.29 1.50 1.70 1.66 1.67 1.55 1.30
0.52 0.61 0.67 0.73 0.77 0.83 0.89 1.02 1.11 1.24 1.35 1.41 1.41 1.47 1.48 1.50 1.48 1.39 1.31 1.28 1.22 1.15 1.13 1.07 1.00 0.98 1.00 1.03 1.10 1.28 1.33 1.29 1.20 1.14 1.09 1.11 1.35 1.51 1.63 1.64 1.53 1.57 1.58
0.51 0.62 0.70 0.75 0.79 0.88 0.95 1.02 1.13 1.21 1.23 1.31 1.32 1.32 1.22 1.11 1.08 1.10 1.08 1.09 1.09 1.04 1.01 1.02 1.01 0.95 0.96 1.02 1.06 1.19 1.33 1.42 1.37 1.19 1.02 1.05 1.33 1.44 1.52 1.49 1.53 1.70 1.70
0.46 0.53 0.62 0.64 0.65 0.72 0.83 0.94 0.96 0.94 0.96 0.99 1.00 1.02 0.97 0.90 0.90 0.94 1.00 1.03 1.07 1.07 1.03 1.01 1.02 0.99 0.92 0.98 1.12 1.19 1.28 1.35 1.32 1.19 1.18 1.20 1.26 1.25 1.29 1.41 1.47 1.47 1.42
0.45 0.51 0.54 0.56 0.58 0.62 0.71 0.83 0.85 0.83 0.85 0.88 0.89 0.92 0.95 0.93 0.93 0.93 0.97 1.05 1.08 1.10 1.08 1.07 1.05 1.00 0.96 0.96 1.02 1.14 1.26 1.32 1.34 1.35 1.35 1.31 1.25 1.21 1.19 1.26 1.26 1.23 1.29
0.50 0.54 0.59 0.61 0.64 0.64 0.67 0.72 0.78 0.83 0.88 0.86 0.86 0.90 0.94 0.98 0.97 0.99 1.05 1.11 1.12 1.22 1.34 1.29 1.21 1.20 1.15 1.07 1.27 1.38 1.41 1.44 1.51 1.58 1.49 1.38 1.29 1.27 1.24 1.19 1.15 1.19 1.30
0.52 0.54 0.59 0.65 0.69 0.69 0.72 0.74 0.80 0.87 0.96 0.96 0.95 0.98 1.03 1.02 1.03 1.04 1.09 1.19 1.21 1.27 1.32 1.31 1.31 1.24 1.19 1.23 1.34 1.40 1.45 1.54 1.66 1.75 1.58 1.34 1.20 1.15 1.13 1.13 1.13 1.14 1.21